TimeCST,TemperatureF,Dew PointF,Humidity,Sea Level PressureIn,VisibilityMPH,Wind Direction,Wind SpeedMPH,Gust SpeedMPH,PrecipitationIn,Events,Conditions,WindDirDegrees,DateUTC
12:15 AM,42.1,36.9,82,29.90,10.0,North,13.8,-,N/A,,Overcast,10,2013-02-07 06:15:00
12:35 AM,41.0,35.6,81,29.91,10.0,North,12.7,-,N/A,,Overcast,360,2013-02-07 06:35:00
1:15 AM,40.3,31.6,71,29.93,10.0,North,13.8,-,N/A,,Clear,10,2013-02-07 07:15:00
1:35 AM,40.3,31.1,70,29.95,10.0,North,10.4,-,N/A,,Scattered Clouds,360,2013-02-07 07:35:00
1:55 AM,40.1,30.7,69,29.95,10.0,North,8.1,-,N/A,,Mostly Cloudy,360,2013-02-07 07:55:00
2:15 AM,40.3,30.2,67,29.95,10.0,North,11.5,-,N/A,,Overcast,360,2013-02-07 08:15:00
2:35 AM,40.8,30.2,66,29.97,10.0,North,11.5,-,N/A,,Overcast,360,2013-02-07 08:35:00
2:55 AM,41.0,30.2,65,29.97,10.0,North,12.7,18.4,N/A,,Overcast,360,2013-02-07 08:55:00
3:15 AM,40.8,30.2,66,29.97,10.0,North,13.8,-,N/A,,Overcast,360,2013-02-07 09:15:00
3:35 AM,40.3,30.2,67,29.96,10.0,North,13.8,-,N/A,,Overcast,360,2013-02-07 09:35:00
3:55 AM,40.3,30.2,67,29.96,10.0,NNW,11.5,-,N/A,,Mostly Cloudy,340,2013-02-07 09:55:00
4:15 AM,39.6,30.4,70,29.96,10.0,North,12.7,-,N/A,,Scattered Clouds,350,2013-02-07 10:15:00
4:35 AM,39.7,30.2,69,29.96,10.0,North,13.8,-,N/A,,Clear,350,2013-02-07 10:35:00
4:55 AM,38.8,29.8,70,29.97,10.0,NNW,12.7,17.3,N/A,,Clear,340,2013-02-07 10:55:00
5:15 AM,38.7,29.8,71,29.98,10.0,NNW,11.5,-,N/A,,Clear,340,2013-02-07 11:15:00
5:35 AM,38.5,29.7,71,29.99,10.0,NNW,12.7,19.6,N/A,,Clear,340,2013-02-07 11:35:00
5:55 AM,38.3,29.3,70,29.99,10.0,NNW,12.7,-,N/A,,Clear,340,2013-02-07 11:55:00
6:15 AM,38.3,29.1,70,30.00,10.0,NNW,13.8,-,N/A,,Clear,340,2013-02-07 12:15:00
6:35 AM,36.5,28.4,72,30.02,10.0,NNW,12.7,-,N/A,,Clear,340,2013-02-07 12:35:00
6:55 AM,36.1,28.2,73,30.02,10.0,NNW,12.7,-,N/A,,Clear,330,2013-02-07 12:55:00
7:15 AM,35.8,28.4,75,30.02,10.0,NNW,11.5,-,N/A,,Clear,340,2013-02-07 13:15:00
7:35 AM,34.9,28.0,76,30.04,10.0,NNW,10.4,-,N/A,,Clear,330,2013-02-07 13:35:00
7:55 AM,34.3,28.0,78,30.05,10.0,NNW,8.1,-,N/A,,Clear,340,2013-02-07 13:55:00
8:15 AM,34.0,28.0,79,30.06,10.0,NNW,8.1,-,N/A,,Clear,330,2013-02-07 14:15:00
8:35 AM,34.2,28.0,78,30.07,10.0,NNW,8.1,-,N/A,,Clear,330,2013-02-07 14:35:00
8:55 AM,36.1,28.6,74,30.08,10.0,NNW,9.2,-,N/A,,Clear,330,2013-02-07 14:55:00
9:15 AM,37.4,28.9,71,30.09,10.0,NNW,10.4,-,N/A,,Clear,340,2013-02-07 15:15:00
9:35 AM,38.7,29.1,69,30.10,10.0,NNW,10.4,-,N/A,,Clear,340,2013-02-07 15:35:00
9:55 AM,40.3,29.5,65,30.10,10.0,NNW,9.2,-,N/A,,Clear,340,2013-02-07 15:55:00
10:15 AM,41.9,29.8,62,30.10,10.0,North,12.7,-,N/A,,Clear,360,2013-02-07 16:15:00
10:35 AM,44.8,29.7,55,30.10,10.0,North,11.5,-,N/A,,Clear,360,2013-02-07 16:35:00
10:55 AM,46.6,29.3,51,30.10,10.0,North,12.7,-,N/A,,Clear,350,2013-02-07 16:55:00
11:15 AM,48.2,28.6,47,30.11,10.0,North,12.7,-,N/A,,Clear,350,2013-02-07 17:15:00
11:35 AM,49.3,29.1,46,30.12,10.0,North,15.0,-,N/A,,Clear,360,2013-02-07 17:35:00
11:55 AM,49.8,28.9,45,30.11,10.0,North,12.7,17.3,N/A,,Clear,10,2013-02-07 17:55:00
12:15 PM,51.1,28.4,42,30.10,10.0,North,15.0,-,N/A,,Clear,360,2013-02-07 18:15:00
12:35 PM,51.4,26.8,38,30.10,10.0,North,13.8,-,N/A,,Clear,350,2013-02-07 18:35:00
12:55 PM,51.6,26.1,37,30.10,10.0,North,11.5,18.4,N/A,,Clear,350,2013-02-07 18:55:00
1:15 PM,52.2,26.2,37,30.09,10.0,North,13.8,21.9,N/A,,Clear,360,2013-02-07 19:15:00
1:35 PM,52.9,26.4,36,30.08,10.0,North,10.4,18.4,N/A,,Clear,360,2013-02-07 19:35:00
1:55 PM,53.6,25.7,34,30.08,10.0,North,11.5,19.6,N/A,,Clear,350,2013-02-07 19:55:00
2:15 PM,54.7,25.7,33,30.08,10.0,North,13.8,19.6,N/A,,Clear,350,2013-02-07 20:15:00
2:35 PM,54.5,23.7,30,30.07,10.0,NNW,15.0,18.4,N/A,,Clear,340,2013-02-07 20:35:00
2:55 PM,54.7,23.7,30,30.08,10.0,North,10.4,17.3,N/A,,Scattered Clouds,350,2013-02-07 20:55:00
3:15 PM,54.7,22.6,29,30.08,10.0,North,9.2,21.9,N/A,,Scattered Clouds,350,2013-02-07 21:15:00
3:35 PM,54.7,23.0,29,30.07,10.0,North,8.1,-,N/A,,Clear,350,2013-02-07 21:35:00
3:55 PM,53.2,22.3,30,30.07,10.0,North,11.5,-,N/A,,Clear,350,2013-02-07 21:55:00
4:15 PM,54.0,21.4,28,30.08,10.0,NNW,12.7,-,N/A,,Clear,330,2013-02-07 22:15:00
4:35 PM,53.8,23.2,30,30.08,10.0,North,10.4,-,N/A,,Clear,360,2013-02-07 22:35:00
4:55 PM,53.1,21.7,29,30.08,10.0,North,9.2,-,N/A,,Clear,10,2013-02-07 22:55:00
5:15 PM,51.3,23.2,33,30.09,10.0,North,9.2,-,N/A,,Clear,360,2013-02-07 23:15:00
5:35 PM,48.4,25.0,40,30.09,10.0,North,6.9,-,N/A,,Clear,360,2013-02-07 23:35:00
5:55 PM,45.5,24.6,44,30.10,10.0,NNE,4.6,-,N/A,,Clear,20,2013-02-07 23:55:00
6:15 PM,42.3,23.2,47,30.10,10.0,NNE,5.8,-,N/A,,Clear,30,2013-02-08 00:15:00
6:35 PM,39.7,22.3,50,30.12,10.0,NE,4.6,-,N/A,,Clear,40,2013-02-08 00:35:00
6:55 PM,36.9,22.6,56,30.13,10.0,ENE,8.1,-,N/A,,Clear,70,2013-02-08 00:55:00
7:15 PM,39.4,23.9,54,30.13,10.0,East,10.4,-,N/A,,Clear,90,2013-02-08 01:15:00
7:35 PM,35.1,23.9,64,30.14,10.0,ESE,6.9,-,N/A,,Clear,110,2013-02-08 01:35:00
7:55 PM,34.0,24.4,68,30.14,10.0,ESE,8.1,-,N/A,,Clear,110,2013-02-08 01:55:00
8:15 PM,32.4,24.8,74,30.15,10.0,ESE,5.8,-,N/A,,Clear,110,2013-02-08 02:15:00
8:35 PM,31.8,24.8,75,30.16,10.0,East,6.9,-,N/A,,Clear,100,2013-02-08 02:35:00
8:55 PM,32.2,25.7,77,30.16,10.0,East,8.1,-,N/A,,Clear,100,2013-02-08 02:55:00
9:15 PM,32.4,26.8,80,30.16,10.0,East,10.4,-,N/A,,Clear,80,2013-02-08 03:15:00
9:35 PM,32.7,26.2,77,30.17,10.0,East,8.1,-,N/A,,Clear,100,2013-02-08 03:35:00
9:55 PM,30.7,25.7,82,30.18,10.0,SSE,4.6,-,N/A,,Clear,150,2013-02-08 03:55:00
10:15 PM,28.6,23.7,82,30.19,10.0,ESE,8.1,-,N/A,,Clear,120,2013-02-08 04:15:00
10:35 PM,27.5,23.5,85,30.19,10.0,ESE,6.9,-,N/A,,Clear,120,2013-02-08 04:35:00
10:55 PM,28.6,25.5,88,30.19,10.0,ESE,8.1,-,N/A,,Clear,110,2013-02-08 04:55:00
11:15 PM,27.1,23.7,87,30.19,10.0,ESE,6.9,-,N/A,,Clear,110,2013-02-08 05:15:00
11:35 PM,26.1,23.5,90,30.20,10.0,ESE,6.9,-,N/A,,Clear,110,2013-02-08 05:35:00
11:55 PM,27.0,24.1,89,30.19,10.0,ESE,4.6,-,N/A,,Clear,110,2013-02-08 05:55:00